When you browse on this site, cookies collect data to enhance your experience and personalize the content and advertising you see.
Visit our Privacy Policy to learn more. By continuing to use the site, you agree to this use of cookies and data.
  • en Suisse
  • Liste des pays
  • À 7 jours
  • Température de l'eau
  • Carte météo
  • Widgets météo
  • user-avatar
    Se connecter

    Météo par heure à Mijas

    Ce jour, 24 Février, Lundi

    Heure Température Précipitation Vent Pression Humidité
    00:00 +9°C° 0 mm 2 m/s 725 mmHg 57%
    01:00 +9°C° 0 mm 2 m/s 725 mmHg 56%
    02:00 +8°C° 0 mm 2 m/s 724 mmHg 55%
    03:00 +8°C° 0 mm 2 m/s 724 mmHg 54%
    04:00 +8°C° 0 mm 2 m/s 724 mmHg 51%
    05:00 +8°C° 0 mm 2 m/s 724 mmHg 49%
    06:00 +8°C° 0 mm 2 m/s 724 mmHg 47%
    07:00 +11°C° 0 mm 1 m/s 724 mmHg 45%
    08:00 +13°C° 0 mm 1 m/s 724 mmHg 42%
    09:00 +14°C° 0 mm 1 m/s 725 mmHg 40%
    10:00 +16°C° 0 mm 1 m/s 724 mmHg 37%
    11:00 +18°C° 0 mm 1 m/s 724 mmHg 34%
    12:00 +20°C° 0 mm 1 m/s 724 mmHg 31%
    13:00 +20°C° 0 mm 1 m/s 724 mmHg 32%
    14:00 +20°C° 0 mm 1 m/s 723 mmHg 33%
    15:00 +20°C° 0 mm 2 m/s 722 mmHg 34%
    16:00 +18°C° 0 mm 2 m/s 722 mmHg 41%
    17:00 +16°C° 0 mm 2 m/s 722 mmHg 48%
    18:00 +15°C° 0 mm 2 m/s 721 mmHg 55%
    19:00 +14°C° 0 mm 2 m/s 721 mmHg 55%
    20:00 +14°C° 0 mm 2 m/s 722 mmHg 55%
    21:00 +13°C° 0 mm 2 m/s 722 mmHg 56%
    22:00 +12°C° 0 mm 3 m/s 722 mmHg 54%
    23:00 +12°C° 0 mm 3 m/s 722 mmHg 53%

    Demain, 25 Février, Mardi

    Heure Température Précipitation Vent Pression Humidité
    00:00 +11°C° 0 mm 3 m/s 722 mmHg 51%
    01:00 +11°C° 0 mm 3 m/s 721 mmHg 52%
    02:00 +11°C° 0 mm 3 m/s 721 mmHg 53%
    03:00 +10°C° 0 mm 3 m/s 720 mmHg 54%
    04:00 +10°C° 0 mm 3 m/s 720 mmHg 56%
    05:00 +10°C° 0 mm 3 m/s 720 mmHg 58%
    06:00 +10°C° 0 mm 4 m/s 720 mmHg 59%
    07:00 +11°C° 0 mm 4 m/s 721 mmHg 58%
    08:00 +12°C° 0 mm 4 m/s 721 mmHg 57%
    09:00 +13°C° 0 mm 4 m/s 721 mmHg 55%
    10:00 +15°C° 0 mm 5 m/s 721 mmHg 49%
    11:00 +17°C° 0 mm 6 m/s 721 mmHg 42%
    12:00 +19°C° 0 mm 6 m/s 721 mmHg 35%
    13:00 +19°C° 0 mm 6 m/s 721 mmHg 35%
    14:00 +19°C° 0 mm 6 m/s 720 mmHg 35%
    15:00 +19°C° 0 mm 6 m/s 720 mmHg 34%
    16:00 +17°C° 0 mm 5 m/s 720 mmHg 40%
    17:00 +15°C° 0 mm 5 m/s 719 mmHg 46%
    18:00 +13°C° 0 mm 5 m/s 719 mmHg 52%
    19:00 +13°C° 0 mm 5 m/s 720 mmHg 55%
    20:00 +12°C° 0 mm 4 m/s 720 mmHg 59%
    21:00 +11°C° 0 mm 4 m/s 720 mmHg 62%
    22:00 +11°C° 0 mm 4 m/s 720 mmHg 66%
    23:00 +11°C° 0 mm 4 m/s 720 mmHg 69%

    Après-demain, 26 Février, Mercredi

    Heure Température Précipitation Vent Pression Humidité
    00:00 +10°C° 0 mm 4 m/s 720 mmHg 73%
    01:00 +10°C° 0 mm 4 m/s 720 mmHg 76%
    02:00 +10°C° 0 mm 4 m/s 720 mmHg 80%
    03:00 +10°C° 0 mm 4 m/s 720 mmHg 83%
    04:00 +8°C° 0 mm 4 m/s 719 mmHg 84%
    05:00 +8°C° 0 mm 4 m/s 719 mmHg 84%
    06:00 +8°C° 0 mm 4 m/s 719 mmHg 85%
    07:00 +10°C° 0 mm 4 m/s 719 mmHg 82%
    08:00 +11°C° 0 mm 3 m/s 720 mmHg 78%
    09:00 +12°C° 0 mm 3 m/s 720 mmHg 74%
    10:00 +13°C° 0 mm 4 m/s 720 mmHg 63%
    11:00 +15°C° 0 mm 4 m/s 720 mmHg 52%
    12:00 +18°C° 0 mm 4 m/s 721 mmHg 40%
    13:00 +17°C° 0 mm 5 m/s 720 mmHg 40%
    14:00 +17°C° 0 mm 5 m/s 720 mmHg 39%
    15:00 +17°C° 0 mm 5 m/s 719 mmHg 39%
    16:00 +16°C° 0 mm 5 m/s 719 mmHg 45%
    17:00 +14°C° 0 mm 4 m/s 719 mmHg 50%
    18:00 +13°C° 0 mm 4 m/s 719 mmHg 56%
    19:00 +12°C° 0 mm 4 m/s 719 mmHg 56%
    20:00 +11°C° 0 mm 4 m/s 720 mmHg 57%
    21:00 +11°C° 0 mm 4 m/s 720 mmHg 57%
    22:00 +10°C° 0 mm 3 m/s 720 mmHg 57%
    23:00 +10°C° 0 mm 3 m/s 720 mmHg 58%

    27 Février, Jeudi

    Heure Température Précipitation Vent Pression Humidité
    00:00 +9°C° 0 mm 3 m/s 720 mmHg 59%
    01:00 +9°C° 0 mm 2 m/s 720 mmHg 58%
    02:00 +9°C° 0 mm 2 m/s 720 mmHg 57%
    03:00 +9°C° 0 mm 2 m/s 719 mmHg 56%
    04:00 +8°C° 0 mm 2 m/s 719 mmHg 54%
    05:00 +8°C° 0 mm 2 m/s 719 mmHg 52%
    06:00 +9°C° 0 mm 1 m/s 719 mmHg 50%
    07:00 +11°C° 0 mm 1 m/s 720 mmHg 48%
    08:00 +12°C° 0 mm 1 m/s 720 mmHg 47%
    09:00 +14°C° 0 mm 1 m/s 721 mmHg 45%
    10:00 +15°C° 0 mm 1 m/s 721 mmHg 43%
    11:00 +16°C° 0 mm 1 m/s 721 mmHg 42%
    12:00 +17°C° 0 mm 2 m/s 721 mmHg 40%
    13:00 +18°C° 0 mm 2 m/s 720 mmHg 42%
    14:00 +18°C° 0 mm 2 m/s 720 mmHg 43%
    15:00 +19°C° 0 mm 1 m/s 720 mmHg 44%
    16:00 +18°C° 0 mm 1 m/s 719 mmHg 51%
    17:00 +15°C° 0 mm 1 m/s 719 mmHg 57%
    18:00 +13°C° 0 mm 1 m/s 719 mmHg 64%
    19:00 +13°C° 0 mm 1 m/s 719 mmHg 66%
    20:00 +12°C° 0 mm 1 m/s 720 mmHg 67%
    21:00 +11°C° 0 mm 1 m/s 720 mmHg 69%
    22:00 +11°C° 0 mm 1 m/s 720 mmHg 69%
    23:00 +11°C° 0 mm 1 m/s 720 mmHg 69%

    28 Février, Vendredi

    Heure Température Précipitation Vent Pression Humidité
    00:00 +10°C° 0 mm 1 m/s 719 mmHg 69%
    01:00 +10°C° 0 mm 1 m/s 719 mmHg 68%
    02:00 +10°C° 0 mm 1 m/s 719 mmHg 68%
    03:00 +10°C° 0 mm 1 m/s 718 mmHg 67%
    04:00 +10°C° 0 mm 1 m/s 718 mmHg 67%
    05:00 +10°C° 0 mm 1 m/s 718 mmHg 67%
    06:00 +10°C° 0 mm 1 m/s 718 mmHg 67%
    07:00 +11°C° 0 mm 1 m/s 718 mmHg 64%
    08:00 +13°C° 0 mm 1 m/s 719 mmHg 61%
    09:00 +14°C° 0 mm 1 m/s 719 mmHg 58%
    10:00 +15°C° 0 mm 1 m/s 719 mmHg 54%
    11:00 +16°C° 0 mm 1 m/s 719 mmHg 50%
    12:00 +18°C° 0 mm 2 m/s 719 mmHg 46%
    13:00 +19°C° 0 mm 1 m/s 718 mmHg 46%
    14:00 +19°C° 0 mm 1 m/s 718 mmHg 46%
    15:00 +19°C° 0 mm 1 m/s 717 mmHg 46%
    16:00 +18°C° 0 mm 1 m/s 717 mmHg 52%
    17:00 +16°C° 0 mm 1 m/s 717 mmHg 58%
    18:00 +14°C° 0 mm 1 m/s 717 mmHg 63%
    19:00 +14°C° 0 mm 1 m/s 717 mmHg 66%
    20:00 +13°C° 0 mm 2 m/s 717 mmHg 68%
    21:00 +13°C° 0 mm 2 m/s 718 mmHg 70%
    22:00 +12°C° 0 mm 2 m/s 717 mmHg 70%
    23:00 +12°C° 0 mm 2 m/s 717 mmHg 69%

    29 Février, Samedi

    Heure Température Précipitation Vent Pression Humidité
    00:00 +11°C° 0 mm 3 m/s 717 mmHg 68%
    01:00 +11°C° 0 mm 3 m/s 717 mmHg 68%
    02:00 +11°C° 0 mm 3 m/s 717 mmHg 67%
    03:00 +10°C° 0 mm 4 m/s 717 mmHg 67%
    04:00 +10°C° 0 mm 4 m/s 717 mmHg 66%
    05:00 +10°C° 0 mm 4 m/s 717 mmHg 66%
    06:00 +8°C° 0 mm 4 m/s 717 mmHg 65%
    07:00 +11°C° 0 mm 4 m/s 718 mmHg 62%
    08:00 +12°C° 0 mm 4 m/s 718 mmHg 59%
    09:00 +13°C° 0 mm 4 m/s 718 mmHg 56%
    10:00 +14°C° 0 mm 4 m/s 719 mmHg 51%
    11:00 +16°C° 0 mm 5 m/s 719 mmHg 45%
    12:00 +17°C° 0 mm 6 m/s 719 mmHg 39%
    13:00 +17°C° 0 mm 6 m/s 719 mmHg 41%
    14:00 +17°C° 0 mm 6 m/s 718 mmHg 44%
    15:00 +17°C° 0 mm 6 m/s 718 mmHg 46%
    16:00 +16°C° 0 mm 6 m/s 718 mmHg 52%
    17:00 +14°C° 0 mm 5 m/s 718 mmHg 58%
    18:00 +13°C° 0 mm 4 m/s 718 mmHg 64%
    19:00 +12°C° 0 mm 4 m/s 718 mmHg 67%
    20:00 +11°C° 0 mm 4 m/s 719 mmHg 71%
    21:00 +11°C° 0 mm 4 m/s 719 mmHg 74%
    22:00 +11°C° 0 mm 4 m/s 719 mmHg 77%
    23:00 +10°C° 0 mm 4 m/s 719 mmHg 80%
    Voir plus